Tracking 17844 objects as of 27-August-2016
HD Live streaming from Space Station
objects crossing your sky now

UNHA 3 R/B

Track UNHA 3 R/B now!
10-day predictions


NORAD ID: 39027
Int'l Code: 2012-072B
Perigee: 489.0 km
Apogee: 572.8 km
Inclination: 97.3 °
Period: 95.1 minutes
Semi major axis: 6901 km
RCS: 1.274 m2 (large)
Launch date: December 12, 2012
Source: North Korea (NKOR)
Launch site: Yunsong, DPRK (YUN)

Note: This is a ROCKET BODY
Your satellite tracking list
Your tracking list is empty





NASA's NSSDC Master Catalog

Two Line Element Set (TLE):
1 39027U 12072B   16239.76866794  .00001258  00000-0  69578-4 0  9992
2 39027  97.2658 252.2605 0060700 178.1407 182.0062 15.14095500204402
Source of the keplerian elements: AFSPC

N2YO: 503